Location: *
(50.2210°S, 162.1780°E)
Time: 08:44:51
(UTC+00:00)

Daily predictions for brighter satellites

Satellite Brightness Start Highest point End
(mag) Time Altitude Azimuth Time Altitude Azimuth Time Altitude Azimuth
CENTAUR R/B 4.3 15:29:31 24° SSE 15:29:31 24° SSE 15:32:56 10° ESE
Cosmos 2360 Rocket 4.3 15:46:57 22° SSE 15:46:57 22° SSE 15:48:57 10° SSE
Cosmos 2219 Rocket 4.0 15:51:09 27° SE 15:51:09 27° SE 15:53:51 10° SE
COSMOS 2428 4.4 15:54:26 29° SE 15:54:26 29° SE 15:57:20 10° SE
Okean O Rocket 4.5 15:57:17 10° E 15:59:52 15° SE 16:02:29 10° SSE
SL-16 R/B 3.6 15:58:01 10° SSE 16:01:58 40° SSE 16:01:58 40° SSE
USA 238 DEB 4.4 16:05:49 51° SE 16:05:49 51° SE 16:12:29 10° ENE
USA 238 4.4 16:05:53 51° SSE 16:05:55 51° SE 16:12:34 10° ENE
ATLAS 3B R/B 4.1 16:06:25 29° SSW 16:09:04 36° SSE 16:15:48 10° E
NOSS 3-1 (C) 4.4 16:11:09 51° S 16:11:09 51° S 16:16:56 10° SE
Cosmos 2237 Rocket 3.6 16:17:21 33° E 16:17:21 33° E 16:22:03 10° SE
Cosmos 1725 Rocket 4.5 16:26:57 58° SE 16:26:57 58° SE 16:32:14 10° SSE
Lacrosse 4 Rocket 3.9 16:35:01 19° SE 16:35:01 19° SE 16:36:21 10° SE
Cosmos 2322 Rocket 4.1 16:41:53 19° S 16:41:53 19° S 16:44:24 10° SSE
USA 234 3.5 16:35:28 10° ESE 16:41:54 57° SSW 16:41:59 57° SSW
Cosmos 2333 Rocket 2.8 16:46:12 51° SSE 16:46:12 51° SSE 16:50:32 10° SSE
CZ-4B R/B 4.2 16:44:26 10° NE 16:49:37 44° ESE 16:54:46 10° S
NOSS 3-2 (C) 4.1 16:51:56 33° SSW 16:54:43 53° SE 17:00:37 10° ENE
Cosmos 2369 Rocket 4.3 16:52:48 10° SSW 16:57:24 24° SE 17:01:59 10° E
NOSS 0 Rocket 3.8 17:04:45 76° N 17:05:16 84° ENE 17:11:37 10° SSE
NOSS 3-2 (A) 3.5 17:07:11 47° SSW 17:09:11 79° SE 17:15:06 10° NE
NOSS 3-1 (A) 4.4 17:11:20 42° SW 17:12:28 45° SSW 17:19:17 10° SE
Cosmos 1766 Rocket 4.4 17:14:18 45° SSE 17:14:18 45° SSE 17:17:29 10° SSE
GEOS 3 Rocket 4.2 17:07:56 10° NNE 17:11:48 48° NNE 17:11:48 48° NNE
SL-16 R/B 4.2 17:14:13 15° SSW 17:14:13 15° SSW 17:17:05 10° S
Cosmos 1570 Rocket 4.0 17:15:19 35° SSW 17:17:37 79° ESE 17:22:55 10° NNE
Unknown 4.4 17:18:51 50° SE 17:18:51 50° SE 17:22:16 10° E
Cosmos 2228 Rocket 4.3 17:15:37 10° S 17:19:57 42° ESE 17:24:16 10° NE
CENTAUR R/B 3.0 17:16:42 25° SSW 17:20:05 50° SE 17:25:29 10° ENE
BREEZE-M DEB (TANK) 4.4 17:20:16 31° NNE 17:20:46 32° NE 17:27:30 10° ESE
Unknown 4.3 17:22:01 53° SE 17:22:01 53° SE 17:25:35 10° E
Starlink (trailer) 4.2 17:23:39 55° SE 17:23:39 55° SE 17:27:17 10° E
COSMOS 2455 2.7 17:22:53 68° WNW 17:23:38 79° SW 17:29:43 10° SE
Unknown 4.2 17:25:15 56° SE 17:25:15 56° SE 17:28:57 10° E
Cosmos 1933 4.5 17:22:04 10° S 17:26:07 44° ESE 17:30:05 10° NNE
Unknown 4.1 17:26:50 58° SE 17:26:50 58° SE 17:30:36 10° E
Cosmos 2360 Rocket 3.8 17:28:43 21° SSW 17:28:43 21° SSW 17:32:26 10° SSE
Cosmos 1814 Rocket 4.4 17:24:30 10° SSW 17:29:54 63° ESE 17:35:09 10° NE
Unknown 4.1 17:31:26 52° E 17:31:26 52° E 17:34:24 10° ENE
Cosmos 2219 Rocket 2.9 17:32:52 38° SW 17:32:52 38° SW 17:37:51 10° SSE
Unknown 3.9 17:33:12 63° SSE 17:33:12 63° SSE 17:37:15 10° E
Unknown 3.9 17:34:48 64° SSE 17:34:48 64° SSE 17:38:56 10° E
PAYLOAD B 4.1 17:29:25 10° N 17:35:03 70° WNW 17:40:45 10° SSW
Okean O Rocket 1.5 17:31:05 10° NNE 17:35:36 87° WNW 17:40:10 10° SSW
COSMOS 2428 3.4 17:36:27 36° SW 17:36:27 36° SW 17:41:35 10° SSE
Unknown 3.8 17:36:24 65° SSE 17:36:24 65° SSE 17:40:35 10° E
Unknown 3.8 17:38:01 65° S 17:38:05 65° S 17:42:18 10° E
Cosmos 1140 Rocket 4.4 17:39:48 33° SW 17:39:48 33° SW 17:43:42 10° S
BREEZE-M DEB (TANK) 4.3 17:35:49 40° W 17:39:19 81° NNW 18:07:29 10° ENE
Cosmos 1943 Rocket 3.4 17:33:56 10° SSW 17:39:21 42° SE 17:44:40 10° ENE
Cosmos 1238 Rocket 3.8 17:34:46 15° N 17:39:27 82° E 17:45:52 10° S
Cosmos 2297 3.6 17:36:02 24° SSW 17:39:37 77° WNW 17:45:17 10° NNE
Unknown 3.8 17:39:41 66° S 17:39:49 67° SSE 17:44:02 10° E
Cosmos 2233 Rocket 4.0 17:38:29 47° NW 17:40:00 59° WSW 17:46:17 10° S
Cosmos 468 Rocket 4.5 17:41:42 42° NNW 17:41:42 42° NNW 17:45:23 10° N
Unknown 3.7 17:41:09 65° S 17:41:21 67° SSE 17:45:34 10° E
Unknown 3.7 17:42:53 65° SSW 17:43:10 68° SSE 17:47:23 10° E
Cosmos 1464 Rocket 4.3 17:37:19 10° N 17:43:42 69° E 17:50:07 10° SSE
Cosmos 2084 3.7 17:42:43 47° SSW 17:43:57 74° SE 17:48:33 10° NE
Cosmos 1408 2.9 17:43:11 49° NNE 17:44:00 66° E 17:47:47 10° SSE
Unknown 3.7 17:44:25 64° SSW 17:44:46 68° SSE 17:49:00 10° E
Cosmos 540 Rocket 3.8 17:39:35 10° SSW 17:44:47 65° ESE 17:49:54 10° NE
Unknown 3.7 17:44:48 65° SSW 17:45:06 68° SSE 17:49:17 10° E
Cosmos 1606 3.6 17:41:59 10° S 17:45:48 48° ESE 17:49:31 10° NNE
Genesis I 4.1 17:45:06 36° NNE 17:46:01 44° ENE 17:49:39 10° SE
Unknown 3.7 17:45:57 63° SSW 17:46:22 68° SSE 17:50:35 10° E
NOAA 6 3.9 17:41:59 10° NNE 17:47:14 82° WNW 17:52:33 10° SSW
SL-16 R/B 3.6 17:42:20 10° S 17:47:04 26° SW 17:47:04 26° SW
Cosmos 1825 2.9 17:44:20 14° N 17:47:32 54° E 17:51:20 10° SSE
Falcon 9 debris 4.3 17:48:59 35° NNE 17:48:59 35° NNE 17:51:20 10° NE
Nadezhda 4 Rocket 4.5 17:42:44 10° S 17:49:06 64° ESE 17:55:26 10° NNE
Unknown 3.7 17:48:34 60° SW 17:49:07 69° SSE 17:53:20 10° E
ALOS 2.2 17:45:59 10° NNE 17:50:43 87° ESE 17:55:30 10° SSW
Cosmos 1500 Rocket 4.1 17:46:56 10° N 17:51:20 61° E 17:55:50 10° SSE
Unknown 3.7 17:50:45 59° SW 17:51:23 71° SSE 17:55:36 10° E
Unknown 3.9 17:52:38 45° NNE 17:52:38 45° NNE 17:55:27 10° NE
Unknown 3.7 17:52:23 57° SW 17:53:04 71° SSE 17:57:17 10° E
Unknown 3.7 17:53:59 56° SW 17:54:45 72° SSE 17:58:59 10° E
Cosmos 2208 Rocket 4.0 17:50:10 10° SSW 17:55:31 63° WNW 18:00:54 10° N
Unknown 3.7 17:55:34 54° SW 17:56:24 73° SSE 18:00:37 10° E
USA 238 DEB 3.8 17:53:19 28° WSW 17:56:56 54° WNW 18:03:29 10° NNE
USA 238 3.8 17:53:22 28° WSW 17:57:01 54° WNW 18:03:35 10° NNE
ATLAS 2AS CENTAUR R/B 3.1 17:52:18 10° NNW 17:58:14 52° ENE 18:04:11 10° SE
Cosmos 2151 3.8 17:59:56 35° SW 17:59:56 35° SW 18:03:06 10° S
Unknown 3.7 17:58:48 51° SW 17:59:46 75° SSE 18:04:00 10° ENE
FALCON 9 DEB 3.9 18:00:36 40° N 18:00:36 40° N 18:03:27 10° NE
Cosmos 2237 Rocket 2.4 17:59:13 39° W 18:00:50 51° SW 18:06:27 10° SSE
ATLAS 3B R/B 2.9 17:53:40 12° SW 18:00:52 83° SE 18:08:08 10° NE
Unknown 3.7 18:00:23 49° WSW 18:01:26 76° SSE 18:05:39 10° ENE
Unknown 3.7 18:01:58 48° WSW 18:03:05 76° SSE 18:07:18 10° ENE
Cosmos 1980 4.0 18:01:44 38° W 18:03:17 47° SW 18:08:49 10° SSE
Cosmos 1513 Rocket 4.5 17:57:44 10° N 18:03:57 90° ESE 18:10:21 10° S
Unknown 3.7 18:03:29 46° WSW 18:04:40 76° SSE 18:08:53 10° ENE
BREEZE-M R/B 2.2 18:05:45 62° ENE 18:05:45 62° ENE 18:07:53 10° E
Unknown 3.7 18:05:09 44° WSW 18:06:24 78° SSE 18:10:37 10° ENE
Unknown 3.7 18:06:34 43° WSW 18:07:53 77° SSE 18:12:06 10° ENE
FENGYUN 3A 3.6 18:02:39 10° N 18:08:06 71° WNW 18:13:38 10° SSW
Unknown 3.7 18:09:45 40° WSW 18:11:12 78° SSE 18:15:26 10° ENE
Lacrosse 4 Rocket 3.1 18:11:20 20° SW 18:11:20 20° SW 18:14:32 10° SSE
SL-16 R/B 2.2 18:06:16 13° NNW 18:11:31 89° ENE 18:17:19 10° SSE
Unknown 3.7 18:11:21 39° WSW 18:12:52 79° SSE 18:17:05 10° ENE
Cosmos 192 4.4 18:08:47 10° SSW 18:13:45 58° WNW 18:18:38 10° N
Unknown 3.4 18:13:24 46° W 18:14:28 74° NNW 18:18:22 10° ENE
Unknown 3.6 18:13:10 38° WSW 18:14:44 83° SSE 18:18:59 10° ENE
METEOR-M 4.2 18:10:11 10° N 18:15:29 55° W 18:20:50 10° SSW
Meteor 1-26 Rocket 4.3 18:09:35 10° SSW 18:15:41 87° WNW 18:21:35 10° N
Unknown 3.6 18:14:33 36° WSW 18:16:12 81° SSE 18:20:27 10° ENE
Cosmos 1763 Rocket 3.9 18:14:27 27° WSW 18:16:18 36° WNW 18:20:56 10° NNW
Unknown 3.6 18:16:10 35° WSW 18:17:53 83° SSE 18:22:07 10° ENE
Unknown 3.6 18:19:20 33° WSW 18:21:11 85° SSE 18:25:25 10° ENE
Cosmos 1408 Rocket 4.2 18:21:05 32° W 18:21:42 34° WSW 18:25:46 10° S
Unknown 3.6 18:20:57 32° WSW 18:22:53 86° SSE 18:27:07 10° ENE
IRIDIUM 104 4.4 18:18:07 10° SSW 18:23:18 55° W 18:28:26 10° NNW
Unknown 3.5 18:22:32 35° W 18:24:05 71° NNW 18:28:02 10° ENE
Cosmos 1892 4.1 18:25:14 23° SW 18:25:14 23° SW 18:27:41 10° SSW
USA 234 3.8 18:18:03 10° E 18:24:23 51° S 18:29:21 17° WSW
Unknown 3.6 18:22:33 31° WSW 18:24:32 87° SSE 18:28:46 10° ENE
Unknown 3.6 18:24:08 30° WSW 18:26:12 88° SSE 18:30:25 10° ENE
PSLV R/B 3.9 18:22:59 10° S 18:27:09 64° WSW 18:31:19 10° NNW
Unknown 3.6 18:25:45 29° WSW 18:27:52 89° SSE 18:32:06 10° ENE
IRS-1C Rocket 4.1 18:22:58 10° N 18:28:15 65° WNW 18:33:37 10° SSW
Cosmos 2333 Rocket 3.6 18:28:13 19° WSW 18:29:58 21° SW 18:34:21 10° SSE
CZ-4B R/B 3.8 18:25:21 10° NNW 18:30:18 34° W 18:35:13 10° SSW
Unknown 3.6 18:29:16 27° WSW 18:31:30 83° NNW 18:35:43 10° ENE
Unknown 4.3 18:31:26 27° NW 18:32:01 28° NW 18:35:07 10° NNE
Cosmos 1707 Rocket 4.0 18:27:36 10° S 18:32:03 65° ESE 18:36:29 10° NNE
Cosmos 1743 Rocket 3.8 18:28:30 10° NNW 18:32:52 49° WSW 18:37:16 10° S
Unknown 3.6 18:30:46 26° WSW 18:33:05 83° NNW 18:37:18 10° ENE
Unknown 3.6 18:32:08 25° WSW 18:34:31 84° NNW 18:38:44 10° ENE
Cosmos 1515 Rocket 4.4 18:31:04 10° SSW 18:34:53 28° W 18:38:40 10° NNW
Unknown 3.6 18:33:43 25° WSW 18:36:10 84° NNW 18:40:23 10° ENE
Meteor 1-28 Rocket 4.3 18:33:31 10° S 18:36:45 26° WSW 18:37:16 25° W
Unknown 3.6 18:36:56 23° WSW 18:39:31 82° NNW 18:43:44 10° ENE
H-2A R/B 3.0 18:35:52 10° NNE 18:39:47 74° ESE 18:43:48 10° S
Unknown 3.6 18:38:32 22° WSW 18:41:11 81° NNW 18:45:24 10° ENE
Cosmos 2369 Rocket 2.2 18:36:26 10° SSW 18:42:10 85° WNW 18:47:53 10° NNE
Unknown 3.6 18:40:08 22° WSW 18:42:50 79° NNW 18:47:03 10° ENE
Cosmos 841 Rocket 4.0 18:38:32 10° SW 18:43:21 36° WNW 18:48:06 10° NNW
Envisat 4.1 18:39:11 10° NE 18:44:06 49° ESE 18:49:05 10° S
Unknown 3.6 18:41:42 21° WSW 18:44:29 78° NNW 18:48:42 10° ENE
Cosmos 1633 Rocket 4.4 18:40:48 10° NNE 18:45:00 44° E 18:49:13 10° SSE
ATLAS CENTAUR R/B 3.1 18:41:29 10° NNW 18:45:10 28° NE 18:47:20 10° E
NOSS 3-2 (C) 3.8 18:39:24 10° SW 18:45:32 44° WNW 18:51:02 10° N
Cosmos 1092 Rocket 4.0 18:40:40 10° SSW 18:47:08 79° W 18:53:29 10° N
Cosmos 1805 Rocket 3.5 18:45:41 10° NNW 18:50:11 80° W 18:54:44 10° S
Unknown 3.7 18:48:05 18° WSW 18:51:06 73° NNW 18:55:18 10° ENE
CZ-4 R/B 2.6 18:47:56 10° NE 18:52:00 48° ESE 18:56:10 10° S
Cosmos 2263 4.3 18:46:25 10° SSW 18:52:19 86° ESE 18:58:08 10° NNE
Unknown 3.7 18:49:42 18° WSW 18:52:47 71° NNW 18:56:59 10° ENE
Unknown 3.7 18:51:18 17° WSW 18:54:27 70° NNW 18:58:39 10° ENE
Unknown 3.7 18:52:33 17° WSW 18:55:34 61° NNW 18:59:38 10° NE
Unknown 3.7 18:52:53 17° WSW 18:56:06 69° NNW 19:00:17 10° NE
Unknown 3.7 18:54:30 16° WSW 18:57:47 67° NNW 19:01:58 10° NE
Cosmos 2228 Rocket 4.2 18:54:16 10° SW 18:57:55 24° W 19:01:34 10° NW
SMAP 3.2 18:53:49 10° N 18:58:24 53° W 19:03:04 10° SSW
NOSS 3-2 (A) 4.4 18:54:37 12° WSW 18:59:15 25° WNW 19:03:52 10° NNW
Unknown 3.8 18:57:40 15° WSW 19:01:05 65° NNW 19:05:15 10° NE
Starlink (trailer) 3.8 18:59:18 15° WSW 19:02:46 63° NNW 19:06:56 10° NE
Cosmos 1486 Rocket 4.1 18:57:34 10° NNW 19:02:55 89° ENE 19:08:21 10° SSE
Unknown 3.8 19:00:54 14° WSW 19:04:25 62° NNW 19:08:35 10° NE
Iridium 4 Rocket 3.7 18:59:19 10° S 19:04:50 70° W 19:10:40 10° N
Unknown 3.8 19:02:29 14° WSW 19:06:05 61° NNW 19:10:14 10° NE
NOSS 3-4 (A) 4.2 18:57:59 10° NW 19:06:08 85° NE 19:13:52 10° SE
NOSS 3-4 (C) 4.2 18:58:06 10° NW 19:06:14 84° NE 19:13:58 10° SE
Unknown 4.5 19:05:42 14° W 19:08:25 29° NW 19:11:44 10° NNE
COSMOS 2455 4.0 19:06:03 12° W 19:10:31 26° SSW 19:15:31 10° SSE
CENTAUR R/B 2.7 19:05:01 10° SW 19:10:33 41° WNW 19:15:35 10° N
Okean O Rocket 3.4 19:10:58 10° WNW 19:12:39 12° W 19:14:21 10° WSW
Unknown 3.9 19:08:51 12° WSW 19:12:41 56° NNW 19:16:48 10° NE
SWARM A 4.2 19:09:55 10° N 19:13:19 79° W 19:16:48 10° S
Meteor 2-3 Rocket 4.0 19:08:13 10° NW 19:13:41 46° WSW 19:19:18 10° S
Unknown 3.9 19:10:28 11° WSW 19:14:21 55° NNW 19:18:28 10° NE
Cosmos 1633 3.1 19:11:34 10° N 19:15:07 64° E 19:18:45 10° SSE
Unknown 4.0 19:12:03 11° WSW 19:15:59 53° NNW 19:20:04 10° NE
RESURS DK-1 3.5 19:12:49 10° N 19:16:50 48° ENE 19:20:53 10° SE
Cosmos 1666 Rocket 3.6 19:12:23 10° NNW 19:16:52 77° WSW 19:21:27 10° S
Unknown 4.0 19:13:40 11° WSW 19:17:41 52° NNW 19:21:47 10° NE
Cosmos 2219 Rocket 4.1 19:15:34 10° SW 19:18:13 13° SSW 19:20:52 10° S
Unknown 4.1 19:15:20 10° WSW 19:19:24 50° NNW 19:23:28 10° NE
Unknown 4.1 19:16:50 10° WSW 19:20:56 50° NNW 19:25:00 10° NE
Cosmos 1606 4.3 19:18:41 10° SW 19:21:07 16° W 19:23:33 10° NW
Cosmos 1503 Rocket 4.3 19:17:13 10° NNW 19:22:24 75° ENE 19:27:40 10° SSE
Unknown 4.1 19:18:38 10° WSW 19:22:43 48° NNW 19:26:46 10° NE
Cosmos 1943 Rocket 2.6 19:17:49 10° SW 19:23:07 41° WNW 19:28:19 10° N
Cosmos 1825 3.8 19:21:02 10° WNW 19:23:26 16° WSW 19:25:51 10° SSW
Okean-O 3.2 19:19:19 10° NNW 19:23:28 37° W 19:27:42 10° SSW
Genesis I 4.2 19:20:24 10° W 19:23:45 29° SW 19:27:08 10° SSE
Unknown 4.1 19:20:15 10° WSW 19:24:20 48° NNW 19:28:23 10° NE
Unknown 4.1 19:20:27 10° WSW 19:24:28 46° NNW 19:28:27 10° NE
Cosmos 1428 Rocket 4.5 19:18:53 10° SSW 19:25:03 69° W 19:31:13 10° N
Unknown 4.2 19:21:51 10° WSW 19:25:55 47° NNW 19:29:57 10° NE
Ariane Rocket 4.1 19:21:10 10° NE 19:26:06 49° ESE 19:31:06 10° S
Cosmos 1634 Rocket 4.1 19:19:58 10° NNW 19:26:20 70° WSW 19:32:45 10° S
CSL-04 Rocket 3.8 19:20:55 10° NNE 19:26:27 87° ESE 19:32:01 10° SSW
Unknown 4.2 19:24:38 10° WSW 19:28:42 46° NNW 19:32:45 10° NE
ALOS 3.9 19:26:28 10° WNW 19:28:49 14° W 19:31:12 10° SW
Cosmos 1656 Rocket 3.7 19:25:10 10° SSW 19:30:44 84° WNW 19:36:18 10° NNE
Unknown 4.2 19:26:52 10° WSW 19:30:54 44° NW 19:34:54 10° NE
